sat.trackr.live / text

‹ back to catalog

STARLINK-11276 [DTC]

NORAD 61244 · 2024-175B

PAYLOAD ACTIVE UNKNOWN

§ Identity

Operator
Country
US
Launch date
2024-09-25
Launch site
AFWTR
Launch vehicle
Mass (kg)
RCS (m²)

Purposes: comms

External: N2YO · Heavens-Above · Gunter

§ Orbital elements

Epoch: 2026-05-25T03:15:22.637088Z

Period
91.74 min
Inclination
53.1590°
Eccentricity
0.0000966
Mean motion
15.69697708 rev/d
Perigee alt
359.1 km
Apogee alt
360.4 km
Semi-major
6,737.9 km
B*
2.7808e-5
RAAN
39.3806°
Arg perigee
89.7139°
Mean anomaly
270.3990°
Rev number
9,537

§ Raw data

STARLINK-11276 [DTC]1 61244U 24175B   26145.13567867  .00002780  00000+0  27808-4 0  99922 61244  53.1590  39.3806 0000966  89.7139 270.3990 15.69697708 95371

JSON: /api/v1/satellites/61244 · /tle

For live sub-satellite position, see the globe view (requires WebGL).

§ Visibility from observer

Set your observer location to see the next 7 days of passes ≥ 10°. The values pass through the URL so the page stays shareable.

No JS? Fill the form by hand. The geolocation button needs JavaScript.